User: anonymous   Login
Location: Terra Rouge Observatory
(46.0000°N, 62.7500°W)
Time: 15:52:18
(UTC-04:00)
Language:

NOSS 3-1 (A) - Orbit

View from above orbital plane
View from above orbital plane
View from above satellite
View from above satellite

Ground track
Ground track

The orbit data is extracted from the following two-line orbital elements,

1 26905U 01040A   16334.72185997 0.00000030  00000-0  38261-4 0    02
2 26905  63.4156 182.8495 0346000 358.0949   1.9051 13.40743550    05
Epoch (UTC): 29 November 2016 17:19:28
Eccentricity: 0.0346000
inclination: 63.4156°
perigee height: 847 km
apogee height: 1365 km
right ascension of ascending node: 182.8495°
argument of perigee: 358.0949°
revolutions per day: 13.40743550
mean anomaly at epoch: 1.9051°
orbit number at epoch: 0

The dashed part of the orbit path shows where the satellite is in the earth's shadow,  

DLR